TimeEDT,TemperatureF,Dew PointF,Humidity,Sea Level PressureIn,VisibilityMPH,Wind Direction,Wind SpeedMPH,Gust SpeedMPH,PrecipitationIn,Events,Conditions,WindDirDegrees,DateUTC
1:52 AM,54.0,52.0,93,30.14,10.0,Calm,Calm,-,N/A,,Clear,0,2013-08-16 05:52:00
2:52 AM,52.0,51.1,97,30.14,10.0,Calm,Calm,-,N/A,,Clear,0,2013-08-16 06:52:00
3:52 AM,53.1,51.1,93,30.14,10.0,Calm,Calm,-,N/A,,Clear,0,2013-08-16 07:52:00
4:52 AM,52.0,50.0,93,30.14,10.0,Calm,Calm,-,N/A,,Clear,0,2013-08-16 08:52:00
5:52 AM,54.0,51.1,90,30.15,10.0,NW,3.5,-,N/A,,Clear,320,2013-08-16 09:52:00
6:52 AM,54.0,50.0,86,30.15,10.0,Calm,Calm,-,N/A,,Clear,0,2013-08-16 10:52:00
7:52 AM,54.0,52.0,93,30.16,10.0,Calm,Calm,-,N/A,,Clear,0,2013-08-16 11:52:00
8:52 AM,63.0,53.1,70,30.17,10.0,Calm,Calm,-,N/A,,Clear,0,2013-08-16 12:52:00
9:52 AM,68.0,51.1,55,30.18,10.0,NNE,3.5,-,N/A,,Clear,20,2013-08-16 13:52:00
10:52 AM,71.1,53.1,53,30.19,10.0,SW,4.6,-,N/A,,Clear,230,2013-08-16 14:52:00
11:52 AM,73.0,51.1,46,30.18,10.0,Calm,Calm,-,N/A,,Clear,0,2013-08-16 15:52:00
12:52 PM,73.0,52.0,48,30.18,10.0,Calm,Calm,-,N/A,,Scattered Clouds,0,2013-08-16 16:52:00
1:52 PM,75.9,48.9,38,30.17,10.0,East,4.6,-,N/A,,Mostly Cloudy,80,2013-08-16 17:52:00
2:52 PM,77.0,48.0,36,30.17,10.0,Calm,Calm,-,N/A,,Mostly Cloudy,0,2013-08-16 18:52:00
3:52 PM,77.0,50.0,39,30.16,10.0,Variable,3.5,-,N/A,,Partly Cloudy,0,2013-08-16 19:52:00
4:52 PM,77.0,51.1,40,30.15,10.0,SE,3.5,-,N/A,,Clear,140,2013-08-16 20:52:00
5:52 PM,72.0,55.0,55,30.16,10.0,SE,3.5,-,N/A,,Partly Cloudy,140,2013-08-16 21:52:00
6:52 PM,73.9,48.9,41,30.16,10.0,SE,3.5,-,N/A,,Clear,130,2013-08-16 22:52:00
7:52 PM,70.0,51.1,51,30.17,10.0,SE,3.5,-,N/A,,Clear,130,2013-08-16 23:52:00
8:52 PM,64.0,52.0,65,30.18,10.0,Calm,Calm,-,N/A,,Clear,0,2013-08-17 00:52:00
9:52 PM,60.1,53.1,78,30.19,10.0,Calm,Calm,-,N/A,,Clear,0,2013-08-17 01:52:00
10:52 PM,59.0,53.1,81,30.19,10.0,Calm,Calm,-,N/A,,Clear,0,2013-08-17 02:52:00
11:52 PM,57.0,53.1,87,30.20,10.0,Calm,Calm,-,N/A,,Clear,0,2013-08-17 03:52:00